Location: Lucerne Valley
(34.4439°N, 116.9669°E)
Time: 16:14:33
(UTC-07:00)

OTV 5 (USA 277) - Pass Details

Date: 12 October 2017
Orbit: 404 x 417 km, 43.0° (Epoch: 07 September)

Event Time Altitude Azimuth Distance (km) Brightness Sun altitude
Rises 04:16:55 0° 275° (W) 2,348 ? -20.4°
Reaches altitude 10° 04:19:16 10° 289° (WNW) 1,486 ? -20.9°
Maximum altitude 04:22:05 24° 346° (NNW) 899 ? -21.5°
Enters shadow 04:22:22 24° 355° (N) 907 ? -21.5°
